TimeCDT,TemperatureF,Dew PointF,Humidity,Sea Level PressureIn,VisibilityMPH,Wind Direction,Wind SpeedMPH,Gust SpeedMPH,PrecipitationIn,Events,Conditions,WindDirDegrees,DateUTC
12:15 AM,69.8,64.4,83,30.03,10.0,SSE,11.5,-,N/A,,Clear,150,2013-10-29 05:15:00
12:35 AM,69.8,64.4,83,30.02,10.0,SSE,15.0,-,N/A,,Clear,150,2013-10-29 05:35:00
12:55 AM,69.8,62.6,78,30.02,10.0,SE,15.0,-,N/A,,Clear,140,2013-10-29 05:55:00
1:15 AM,69.8,62.6,78,30.02,10.0,SSE,15.0,-,N/A,,Clear,150,2013-10-29 06:15:00
1:35 AM,69.8,60.8,73,30.02,10.0,SSE,16.1,-,N/A,,Clear,150,2013-10-29 06:35:00
1:55 AM,69.8,60.8,73,30.02,10.0,SSE,13.8,-,N/A,,Mostly Cloudy,150,2013-10-29 06:55:00
2:15 AM,69.8,62.6,78,30.02,10.0,SSE,13.8,-,N/A,,Overcast,150,2013-10-29 07:15:00
2:35 AM,69.8,62.6,78,30.02,10.0,SSE,11.5,-,N/A,,Overcast,150,2013-10-29 07:35:00
2:55 AM,69.8,62.6,78,30.02,10.0,SSE,13.8,-,N/A,,Overcast,150,2013-10-29 07:55:00
3:15 AM,69.8,62.6,78,30.02,10.0,SSE,11.5,-,N/A,,Overcast,160,2013-10-29 08:15:00
3:35 AM,69.8,64.4,83,30.01,10.0,SSE,11.5,-,N/A,,Overcast,160,2013-10-29 08:35:00
3:55 AM,69.8,64.4,83,30.01,10.0,SSE,13.8,-,N/A,,Overcast,150,2013-10-29 08:55:00
4:15 AM,69.8,66.2,88,30.01,10.0,SSE,10.4,-,N/A,,Overcast,160,2013-10-29 09:15:00
7:55 AM,69.8,69.8,100,30.03,10.0,SSE,6.9,-,N/A,,Overcast,160,2013-10-29 12:55:00
9:35 AM,71.6,69.8,94,30.06,10.0,SSE,10.4,-,N/A,,Overcast,150,2013-10-29 14:35:00
9:55 AM,73.4,68.0,83,30.06,10.0,SSE,10.4,-,N/A,,Overcast,160,2013-10-29 14:55:00
10:15 AM,73.4,68.0,83,30.06,10.0,SSE,13.8,-,N/A,,Overcast,150,2013-10-29 15:15:00
10:35 AM,73.4,68.0,83,30.07,10.0,SSE,11.5,-,N/A,,Overcast,150,2013-10-29 15:35:00
10:55 AM,75.2,68.0,78,30.06,10.0,SSE,10.4,-,N/A,,Overcast,150,2013-10-29 15:55:00
11:15 AM,75.2,68.0,78,30.06,10.0,SSE,9.2,-,N/A,,Overcast,160,2013-10-29 16:15:00
11:35 AM,78.8,68.0,69,30.05,10.0,SSE,13.8,-,N/A,,Overcast,160,2013-10-29 16:35:00
11:55 AM,77.0,66.2,69,30.05,10.0,South,10.4,-,N/A,,Overcast,180,2013-10-29 16:55:00
12:15 PM,75.2,66.2,73,30.05,10.0,South,12.7,-,N/A,,Overcast,170,2013-10-29 17:15:00
12:35 PM,75.2,66.2,73,30.05,10.0,SSE,10.4,-,N/A,,Overcast,160,2013-10-29 17:35:00
12:55 PM,75.2,66.2,73,30.05,10.0,South,11.5,-,N/A,,Overcast,190,2013-10-29 17:55:00
1:15 PM,75.2,66.2,73,30.04,10.0,South,12.7,-,N/A,,Overcast,170,2013-10-29 18:15:00
1:35 PM,75.2,66.2,73,30.03,10.0,SSE,9.2,-,N/A,,Overcast,160,2013-10-29 18:35:00
1:55 PM,77.0,66.2,69,30.02,10.0,SSE,10.4,-,N/A,,Overcast,150,2013-10-29 18:55:00
2:15 PM,77.0,66.2,69,30.01,10.0,SSE,11.5,-,N/A,,Overcast,160,2013-10-29 19:15:00
2:35 PM,78.8,66.2,65,29.99,10.0,South,12.7,-,N/A,,Overcast,180,2013-10-29 19:35:00
2:55 PM,78.8,66.2,65,29.99,10.0,South,13.8,-,N/A,,Overcast,190,2013-10-29 19:55:00
3:15 PM,78.8,66.2,65,29.99,10.0,South,16.1,-,N/A,,Overcast,180,2013-10-29 20:15:00
3:35 PM,78.8,66.2,65,29.99,10.0,South,10.4,-,N/A,,Overcast,170,2013-10-29 20:35:00
3:55 PM,78.8,64.4,61,29.98,10.0,SSE,10.4,-,N/A,,Overcast,160,2013-10-29 20:55:00
4:15 PM,78.8,66.2,65,29.97,10.0,SSE,8.1,-,N/A,,Overcast,150,2013-10-29 21:15:00
4:35 PM,78.8,64.4,61,29.98,10.0,SSE,10.4,-,N/A,,Overcast,150,2013-10-29 21:35:00
4:55 PM,78.8,64.4,61,29.99,10.0,SSE,10.4,-,N/A,,Overcast,160,2013-10-29 21:55:00
5:15 PM,78.8,64.4,61,29.98,10.0,SSE,10.4,-,N/A,,Overcast,150,2013-10-29 22:15:00
5:35 PM,78.8,64.4,61,29.98,10.0,SSE,8.1,-,N/A,,Overcast,150,2013-10-29 22:35:00
5:55 PM,78.8,64.4,61,29.98,10.0,SSE,10.4,-,N/A,,Mostly Cloudy,150,2013-10-29 22:55:00
6:15 PM,78.8,64.4,61,29.98,10.0,SSE,10.4,-,N/A,,Mostly Cloudy,150,2013-10-29 23:15:00
6:35 PM,77.0,62.6,61,29.98,10.0,SSE,11.5,-,N/A,,Overcast,150,2013-10-29 23:35:00
6:55 PM,75.2,62.6,65,29.99,10.0,SSE,9.2,-,N/A,,Mostly Cloudy,150,2013-10-29 23:55:00
7:15 PM,75.2,62.6,65,30.00,10.0,SSE,6.9,-,N/A,,Clear,150,2013-10-30 00:15:00
7:35 PM,75.2,62.6,65,30.00,10.0,SSE,9.2,-,N/A,,Clear,150,2013-10-30 00:35:00
7:55 PM,75.2,62.6,65,30.01,10.0,SE,5.8,-,N/A,,Scattered Clouds,140,2013-10-30 00:55:00
8:15 PM,73.4,64.4,73,30.01,10.0,SE,5.8,-,N/A,,Mostly Cloudy,130,2013-10-30 01:15:00
8:35 PM,73.4,64.4,73,30.01,10.0,SE,6.9,-,N/A,,Mostly Cloudy,130,2013-10-30 01:35:00
8:55 PM,73.4,64.4,73,30.01,10.0,ESE,5.8,-,N/A,,Scattered Clouds,120,2013-10-30 01:55:00
9:15 PM,73.4,64.4,73,30.02,10.0,SE,4.6,-,N/A,,Mostly Cloudy,140,2013-10-30 02:15:00
9:35 PM,73.4,64.4,73,30.01,10.0,ESE,5.8,-,N/A,,Mostly Cloudy,120,2013-10-30 02:35:00
9:55 PM,73.4,66.2,78,30.02,10.0,Calm,Calm,-,N/A,Rain,Light Rain,0,2013-10-30 02:55:00
10:15 PM,71.6,66.2,83,30.02,10.0,SE,6.9,-,N/A,Rain,Light Rain,140,2013-10-30 03:15:00
10:35 PM,71.6,66.2,83,30.01,10.0,SE,6.9,-,N/A,,Mostly Cloudy,130,2013-10-30 03:35:00
10:55 PM,71.6,66.2,83,30.02,10.0,SE,9.2,-,N/A,,Partly Cloudy,130,2013-10-30 03:55:00
11:15 PM,71.6,66.2,83,30.02,10.0,SE,9.2,-,N/A,,Clear,140,2013-10-30 04:15:00
11:35 PM,71.6,66.2,83,30.02,10.0,SE,10.4,-,N/A,,Partly Cloudy,140,2013-10-30 04:35:00
11:55 PM,69.8,68.0,94,30.02,10.0,SE,10.4,-,N/A,,Clear,140,2013-10-30 04:55:00